TimeEDT,TemperatureF,Dew PointF,Humidity,Sea Level PressureIn,VisibilityMPH,Wind Direction,Wind SpeedMPH,Gust SpeedMPH,PrecipitationIn,Events,Conditions,WindDirDegrees,DateUTC
12:54 AM,70.0,64.0,81,30.14,10.0,North,-9999.0,-,N/A,,Overcast,0,2013-06-23 04:54:00
1:54 AM,70.0,64.0,81,30.13,10.0,North,-9999.0,-,N/A,,Partly Cloudy,0,2013-06-23 05:54:00
2:54 AM,68.0,64.0,87,30.12,10.0,North,-9999.0,-,N/A,,Clear,0,2013-06-23 06:54:00
3:54 AM,66.9,63.0,87,30.12,9.0,North,-9999.0,-,N/A,,Partly Cloudy,0,2013-06-23 07:54:00
4:54 AM,66.0,62.1,87,30.13,10.0,North,-9999.0,-,N/A,,Clear,0,2013-06-23 08:54:00
5:54 AM,64.9,62.1,90,30.14,9.0,North,-9999.0,-,N/A,,Clear,0,2013-06-23 09:54:00
6:54 AM,69.1,64.0,84,30.14,10.0,Calm,Calm,-,N/A,,Clear,0,2013-06-23 10:54:00
7:54 AM,72.0,64.9,78,30.16,10.0,Calm,Calm,-,N/A,,Clear,0,2013-06-23 11:54:00
8:54 AM,75.9,66.0,71,30.15,10.0,North,-9999.0,-,N/A,,Clear,0,2013-06-23 12:54:00
9:54 AM,79.0,66.9,66,30.14,-9999.0,ESE,3.5,-,N/A,,Clear,120,2013-06-23 13:54:00
10:54 AM,81.0,68.0,65,30.13,10.0,North,-9999.0,-,N/A,,Clear,0,2013-06-23 14:54:00
11:54 AM,82.9,69.1,63,30.12,10.0,Variable,4.6,-,N/A,,Partly Cloudy,0,2013-06-23 15:54:00
12:54 PM,86.0,69.1,57,30.09,10.0,North,-9999.0,-,N/A,,Clear,0,2013-06-23 16:54:00
1:54 PM,88.0,68.0,51,30.07,10.0,North,-9999.0,-,N/A,,Scattered Clouds,0,2013-06-23 17:54:00
2:54 PM,89.1,68.0,50,30.05,10.0,North,-9999.0,-,N/A,,Scattered Clouds,0,2013-06-23 18:54:00
3:54 PM,86.0,66.9,53,30.03,10.0,SSE,13.8,-,N/A,,Scattered Clouds,150,2013-06-23 19:54:00
4:54 PM,87.1,68.0,53,30.02,10.0,SSE,13.8,-,0.00,,Scattered Clouds,160,2013-06-23 20:54:00
5:54 PM,86.0,66.0,51,30.01,10.0,South,11.5,19.6,N/A,,Mostly Cloudy,170,2013-06-23 21:54:00
7:54 PM,82.9,64.9,54,30.01,10.0,South,12.7,21.9,N/A,,Clear,170,2013-06-23 23:54:00
8:54 PM,82.0,63.0,52,30.02,10.0,Variable,3.5,-,N/A,,Clear,0,2013-06-24 00:54:00
9:54 PM,81.0,64.0,56,30.05,10.0,Calm,Calm,-,N/A,,Clear,0,2013-06-24 01:54:00
10:54 PM,78.1,64.9,64,30.08,10.0,North,3.5,-,N/A,,Mostly Cloudy,10,2013-06-24 02:54:00
11:54 PM,77.0,64.9,66,30.08,10.0,ESE,4.6,-,0.00,,Mostly Cloudy,110,2013-06-24 03:54:00